Home > Weather > Cork > Past weeks

Flag for Ireland Past Weather in Cork, Ireland — Yesterday and Last 2 Weeks

Now
54 °F

Passing clouds.


Feels Like: 54 °F
Forecast: 56 / 70 °F
Wind: 2 mph from West

Location: Cork Airport

Current Time: Jul 25, 2016 at 1:32:14 AM

Latest Report: Jul 25, 2016 at 12:00 AM


Visibility: 19 mi

Pressure: 30.13 "Hg

Humidity: 91%

Dew Point: 51 °F

Location of CorkLocation

Past Weather in Cork — Graph

°F

Cork Temperature Yesterday

Maximum temperature yesterday: 66 °F (at 2:00 PM)
Minimum temperature yesterday: 56 °F (at 11:00 PM)
Average temperature yesterday: 60 °F

High & Low Weather Summary for the Past Weeks

 TemperatureHumidityPressure
High73 °F (Jul 17, 5:00 PM)100% (Jul 10, 3:00 AM)30.35 "Hg (Jul 10, 3:00 AM)
Low49 °F (Jul 14, 5:00 AM)51% (Jul 18, 1:00 PM)29.50 "Hg (Jul 10, 3:00 PM)
Average60 °F88%30.05 "Hg
* Reported Jul 10 12:00 AM — Jul 25 12:00 AM, Cork, Weather by CustomWeather, © 2016

Note: Actual official high and low records may vary slightly from our data, if they occured in-between our weather recording intervals... More about our weather records

Advertising

Cork Weather History for the Previous 24 Hours

Scroll right to see more
 ConditionsComfort  
Time TempWeatherWind HumidityBarometerVisibility
12:00 AM
Mon, Jul 25
54 °FPassing clouds.2 mph91%30.13 "Hg19 mi
11:00 PM
Sun, Jul 24
56 °FPassing clouds.5 mph86%30.11 "Hg19 mi
10:00 PM57 °FPassing clouds.3 mph80%30.11 "Hg19 mi
9:00 PM59 °FScattered clouds.5 mph77%30.09 "Hg19 mi
8:00 PM61 °FScattered clouds.6 mph76%30.06 "Hg19 mi
7:00 PM63 °FScattered clouds.8 mph65%30.05 "Hg25 mi
6:00 PM62 °FOvercast.8 mph72%30.04 "Hg28 mi
5:00 PM64 °FOvercast.8 mph68%30.02 "Hg34 mi
4:00 PM62 °FOvercast.8 mph74%30.03 "Hg34 mi
3:00 PM63 °FOvercast.8 mph76%30.02 "Hg31 mi
2:00 PM66 °FPartly sunny.9 mph67%30.01 "Hg22 mi
1:00 PM65 °FPartly sunny.8 mph68%30.00 "Hg34 mi
12:00 PM65 °FPartly sunny.7 mph71%30.00 "Hg34 mi
11:00 AM65 °FPartly sunny.6 mph76%29.99 "Hg34 mi
10:00 AM63 °FLow clouds.5 mph96%29.99 "Hg37 mi
9:00 AM60 °FFog.5 mph100%30.00 "Hg7 mi
8:00 AM59 °FDrizzle. Low clouds.3 mph100%30.00 "Hg0 mi
7:00 AM57 °FFog.5 mph100%30.00 "Hg0 mi
6:00 AM56 °FLight rain. Low clouds.5 mph100%30.02 "Hg1 mi
5:00 AM56 °FLight rain. Low clouds.5 mph100%30.03 "Hg4 mi
4:00 AM56 °FLight rain. Low clouds.2 mph100%30.06 "Hg5 mi
3:00 AM56 °FOvercast.2 mph99%30.09 "Hg12 mi
2:00 AM56 °FPassing clouds.2 mph98%30.10 "Hg12 mi
1:00 AM56 °FPassing clouds.2 mph94%30.11 "Hg12 mi
Weather by CustomWeather, © 2016

See weather overviewHow to use our weather pages